TimeEST,TemperatureF,Dew PointF,Humidity,Sea Level PressureIn,VisibilityMPH,Wind Direction,Wind SpeedMPH,Gust SpeedMPH,PrecipitationIn,Events,Conditions,WindDirDegrees,DateUTC
12:51 AM,34.0,21.0,59,30.26,10.0,NNW,9.2,-,N/A,,Clear,340,2013-03-09 05:51:00
1:51 AM,32.0,21.0,64,30.26,10.0,NW,8.1,-,N/A,,Clear,320,2013-03-09 06:51:00
2:51 AM,33.1,21.0,61,30.25,10.0,NW,6.9,-,N/A,,Clear,320,2013-03-09 07:51:00
3:51 AM,32.0,19.9,61,30.25,10.0,Calm,Calm,-,N/A,,Clear,0,2013-03-09 08:51:00
4:51 AM,30.9,19.9,64,30.27,10.0,WSW,4.6,-,N/A,,Clear,250,2013-03-09 09:51:00
5:51 AM,32.0,19.9,61,30.29,10.0,NW,4.6,-,N/A,,Clear,320,2013-03-09 10:51:00
6:51 AM,30.0,19.9,66,30.30,10.0,Calm,Calm,-,N/A,,Clear,0,2013-03-09 11:51:00
7:51 AM,36.0,21.9,57,30.30,10.0,West,3.5,-,N/A,,Clear,270,2013-03-09 12:51:00
8:51 AM,39.9,21.0,47,30.31,10.0,WNW,5.8,-,N/A,,Clear,290,2013-03-09 13:51:00
9:51 AM,46.0,21.0,37,30.32,10.0,NW,10.4,-,0.00,,Clear,320,2013-03-09 14:51:00
10:51 AM,51.1,19.9,29,30.30,10.0,Variable,3.5,-,N/A,,Clear,0,2013-03-09 15:51:00
11:51 AM,55.0,18.0,23,30.29,10.0,Calm,Calm,-,N/A,,Clear,0,2013-03-09 16:51:00
12:51 PM,57.9,15.1,19,30.25,10.0,Variable,4.6,-,N/A,,Clear,0,2013-03-09 17:51:00
1:51 PM,62.1,17.1,18,30.23,10.0,Variable,5.8,-,N/A,,Clear,0,2013-03-09 18:51:00
2:51 PM,63.0,15.1,16,30.23,10.0,NNW,5.8,-,N/A,,Clear,340,2013-03-09 19:51:00
3:51 PM,63.0,10.0,13,30.23,10.0,NNE,5.8,-,N/A,,Clear,20,2013-03-09 20:51:00
4:51 PM,60.1,10.9,14,30.24,10.0,ENE,4.6,-,N/A,,Clear,70,2013-03-09 21:51:00
5:51 PM,51.1,16.0,25,30.26,10.0,ENE,5.8,-,N/A,,Clear,60,2013-03-09 22:51:00
6:51 PM,48.0,16.0,28,30.27,10.0,NNW,3.5,-,N/A,,Clear,340,2013-03-09 23:51:00
7:51 PM,50.0,15.1,25,30.28,10.0,Calm,Calm,-,N/A,,Clear,0,2013-03-10 00:51:00
8:51 PM,46.9,17.1,30,30.29,10.0,Calm,Calm,-,N/A,,Clear,0,2013-03-10 01:51:00
9:51 PM,39.0,19.9,46,30.30,9.0,Calm,Calm,-,N/A,,Clear,0,2013-03-10 02:51:00
10:51 PM,35.1,21.9,59,30.31,10.0,NW,3.5,-,N/A,,Clear,320,2013-03-10 03:51:00
11:51 PM,34.0,21.0,59,30.32,10.0,Calm,Calm,-,N/A,,Clear,0,2013-03-10 04:51:00